Location: Newark
(48.0000°N, 67.0000°E)
Time: 05:37:01
(UTC+00:00)

N. Korean satellite - Pass Details

Date: 28 January 2020
Orbit: 456 x 505 km, 97.2° (Epoch: 27 February)

Event Time Altitude Azimuth Distance (km) Brightness Sun altitude
Rises 01:16:19 0° 15° (NNE) 2,547 10.3 -18.2°
Reaches altitude 10° 01:18:24 10° 18° (NNE) 1,671 9.4 -17.9°
Maximum altitude 01:21:58 65° 101° (E) 541 7.0 -17.3°
Drops below altitude 10° 01:25:34 10° 184° (S) 1,683 9.4 -16.7°
Sets 01:27:40 0° 187° (S) 2,568 10.3 -16.4°
